Time,TemperatureF,DewpointF,PressureIn,WindDirection,WindDirectionDegrees,WindSpeedMPH,WindSpeedGustMPH,Humidity,HourlyPrecipIn,Conditions,Clouds,dailyrainin,SoftwareType,DateUTC
2013-08-13 00:01:00,61.9,58.6,29.83,NW,304,0.0,0.0,89,0.00,CLR,,0.00,WeatherDisplay:10.37,2013-08-13 04:01:00,
2013-08-13 00:02:00,61.8,58.5,29.83,NW,304,0.0,0.0,89,0.00,CLR,,0.00,WeatherDisplay:10.37,2013-08-13 04:02:00,
2013-08-13 00:03:00,61.8,58.5,29.83,NW,305,0.0,0.0,89,0.00,CLR,,0.00,WeatherDisplay:10.37,2013-08-13 04:03:00,
2013-08-13 00:06:00,61.7,58.4,29.83,NW,305,0.0,0.0,89,0.00,CLR,,0.00,WeatherDisplay:10.37,2013-08-13 04:06:00,
2013-08-13 00:11:00,61.5,58.2,29.83,NW,306,0.0,0.0,89,0.00,CLR,,0.00,WeatherDisplay:10.37,2013-08-13 04:11:00,
2013-08-13 00:16:00,61.4,58.1,29.83,NW,304,1.1,0.0,89,0.00,CLR,,0.00,WeatherDisplay:10.37,2013-08-13 04:16:00,
2013-08-13 00:21:00,61.2,58.2,29.83,WNW,303,1.1,0.0,90,0.00,CLR,,0.00,WeatherDisplay:10.37,2013-08-13 04:21:00,
2013-08-13 00:26:00,61.1,58.1,29.83,NW,304,1.1,1.1,90,0.00,CLR,,0.00,WeatherDisplay:10.37,2013-08-13 04:26:00,
2013-08-13 00:31:00,61.0,58.0,29.83,NW,304,0.0,0.0,90,0.00,CLR,,0.00,WeatherDisplay:10.37,2013-08-13 04:31:00,
2013-08-13 00:36:00,60.9,57.9,29.83,WNW,303,0.0,0.0,90,0.00,CLR,,0.00,WeatherDisplay:10.37,2013-08-13 04:36:00,
2013-08-13 00:41:00,60.8,58.2,29.83,NW,304,0.0,0.0,91,0.00,CLR,,0.00,WeatherDisplay:10.37,2013-08-13 04:41:00,
2013-08-13 00:46:00,60.8,58.2,29.83,NW,315,0.0,0.0,91,0.00,CLR,,0.00,WeatherDisplay:10.37,2013-08-13 04:46:00,
2013-08-13 00:51:00,60.8,58.2,29.83,NW,317,1.1,1.1,91,0.00,CLR,,0.00,WeatherDisplay:10.37,2013-08-13 04:51:00,
2013-08-13 00:56:00,60.9,58.3,29.83,NW,321,0.0,0.0,91,0.00,CLR,,0.00,WeatherDisplay:10.37,2013-08-13 04:56:00,
2013-08-13 01:01:00,61.0,58.4,29.83,NW,321,1.1,0.0,91,0.00,CLR,,0.00,WeatherDisplay:10.37,2013-08-13 05:01:00,
2013-08-13 01:06:00,61.0,58.4,29.83,NW,321,0.0,0.0,91,0.00,CLR,,0.00,WeatherDisplay:10.37,2013-08-13 05:06:00,
2013-08-13 01:11:00,61.0,58.4,29.83,NW,321,0.0,0.0,91,0.00,CLR,,0.00,WeatherDisplay:10.37,2013-08-13 05:11:00,
2013-08-13 01:16:00,61.0,58.4,29.83,NW,319,3.5,3.5,91,0.00,CLR,,0.00,WeatherDisplay:10.37,2013-08-13 05:16:00,
2013-08-13 01:21:00,61.0,58.0,29.83,NW,320,0.0,0.0,90,0.00,CLR,,0.00,WeatherDisplay:10.37,2013-08-13 05:21:00,
2013-08-13 01:26:00,60.9,57.9,29.83,NW,320,0.0,0.0,90,0.00,CLR,,0.00,WeatherDisplay:10.37,2013-08-13 05:26:00,
2013-08-13 01:31:00,60.9,57.9,29.83,NW,319,1.1,0.0,90,0.00,CLR,,0.00,WeatherDisplay:10.37,2013-08-13 05:31:00,
2013-08-13 01:36:00,60.7,57.4,29.83,NW,314,1.1,0.0,89,0.00,CLR,,0.00,WeatherDisplay:10.37,2013-08-13 05:36:00,
2013-08-13 01:41:00,60.7,57.4,29.83,North,355,2.3,2.3,89,0.00,CLR,,0.00,WeatherDisplay:10.37,2013-08-13 05:41:00,
2013-08-13 01:46:00,60.8,57.5,29.83,North,355,0.0,0.0,89,0.00,CLR,,0.00,WeatherDisplay:10.37,2013-08-13 05:46:00,
2013-08-13 01:51:00,60.8,57.2,29.83,NNW,328,0.0,0.0,88,0.00,CLR,,0.00,WeatherDisplay:10.37,2013-08-13 05:51:00,
2013-08-13 01:56:00,60.8,57.2,29.83,NNW,329,0.0,0.0,88,0.00,CLR,,0.00,WeatherDisplay:10.37,2013-08-13 05:56:00,
2013-08-13 02:01:00,60.8,56.9,29.83,NW,326,1.1,1.1,87,0.00,CLR,,0.00,WeatherDisplay:10.37,2013-08-13 06:01:00,
2013-08-13 02:06:00,60.8,56.9,29.83,NNW,327,0.0,0.0,87,0.00,CLR,,0.00,WeatherDisplay:10.37,2013-08-13 06:06:00,
2013-08-13 02:11:00,60.5,56.6,29.83,NW,317,9.2,9.2,87,0.00,CLR,,0.00,WeatherDisplay:10.37,2013-08-13 06:11:00,
2013-08-13 02:16:00,60.2,56.3,29.84,NNW,329,2.3,2.3,87,0.00,CLR,,0.00,WeatherDisplay:10.37,2013-08-13 06:16:00,
2013-08-13 02:21:00,59.8,55.6,29.84,NW,323,4.6,4.6,86,0.00,CLR,,0.00,WeatherDisplay:10.37,2013-08-13 06:21:00,
2013-08-13 02:26:00,59.3,54.8,29.84,NNE,12,1.1,1.1,85,0.00,CLR,,0.00,WeatherDisplay:10.37,2013-08-13 06:26:00,
2013-08-13 02:31:00,59.0,54.5,29.84,NNW,329,2.3,2.3,85,0.00,CLR,,0.00,WeatherDisplay:10.37,2013-08-13 06:31:00,
2013-08-13 02:36:00,59.0,54.8,29.84,NNW,331,0.0,0.0,86,0.00,CLR,,0.00,WeatherDisplay:10.37,2013-08-13 06:36:00,
2013-08-13 02:41:00,58.5,54.0,29.84,NW,317,0.0,0.0,85,0.00,CLR,,0.00,WeatherDisplay:10.37,2013-08-13 06:41:00,
2013-08-13 02:46:00,58.1,53.9,29.84,NW,325,0.0,0.0,86,0.00,CLR,,0.00,WeatherDisplay:10.37,2013-08-13 06:46:00,
2013-08-13 02:51:00,57.8,53.6,29.84,NNW,329,3.5,3.5,86,0.00,CLR,,0.00,WeatherDisplay:10.37,2013-08-13 06:51:00,
2013-08-13 02:56:00,57.5,53.3,29.84,NW,323,1.1,1.1,86,0.00,CLR,,0.00,WeatherDisplay:10.37,2013-08-13 06:56:00,
2013-08-13 03:01:00,57.2,53.0,29.84,North,360,1.1,0.0,86,0.00,CLR,,0.00,WeatherDisplay:10.37,2013-08-13 07:01:00,
2013-08-13 03:06:00,57.0,53.2,29.84,North,350,1.1,0.0,87,0.00,CLR,,0.00,WeatherDisplay:10.37,2013-08-13 07:06:00,
2013-08-13 03:11:00,56.8,52.7,29.84,North,350,1.1,1.1,86,0.00,CLR,,0.00,WeatherDisplay:10.37,2013-08-13 07:11:00,
2013-08-13 03:16:00,56.6,52.5,29.84,NNW,338,0.0,0.0,86,0.00,CLR,,0.00,WeatherDisplay:10.37,2013-08-13 07:16:00,
2013-08-13 03:21:00,56.3,52.5,29.84,NNW,337,0.0,0.0,87,0.00,CLR,,0.00,WeatherDisplay:10.37,2013-08-13 07:21:00,
2013-08-13 03:26:00,56.0,52.2,29.84,NNW,334,1.1,0.0,87,0.00,CLR,,0.00,WeatherDisplay:10.37,2013-08-13 07:26:00,
2013-08-13 03:31:00,55.9,52.1,29.84,WNW,286,0.0,0.0,87,0.00,CLR,,0.00,WeatherDisplay:10.37,2013-08-13 07:31:00,
2013-08-13 03:36:00,55.7,52.2,29.84,WNW,286,0.0,0.0,88,0.00,CLR,,0.00,WeatherDisplay:10.37,2013-08-13 07:36:00,
2013-08-13 03:41:00,55.5,52.0,29.84,WNW,286,0.0,0.0,88,0.00,CLR,,0.00,WeatherDisplay:10.37,2013-08-13 07:41:00,
2013-08-13 03:46:00,55.3,51.8,29.84,NNW,330,0.0,0.0,88,0.00,CLR,,0.00,WeatherDisplay:10.37,2013-08-13 07:46:00,
2013-08-13 03:51:00,55.1,51.9,29.84,NW,326,1.1,1.1,89,0.00,CLR,,0.00,WeatherDisplay:10.37,2013-08-13 07:51:00,
2013-08-13 03:56:00,55.0,51.5,29.84,NW,310,0.0,0.0,88,0.00,CLR,,0.00,WeatherDisplay:10.37,2013-08-13 07:56:00,
2013-08-13 04:01:00,54.9,51.4,29.84,NW,319,1.1,1.1,88,0.00,CLR,,0.00,WeatherDisplay:10.37,2013-08-13 08:01:00,
2013-08-13 04:06:00,54.8,51.3,29.84,NNW,330,3.0,3.0,88,0.00,CLR,,0.00,WeatherDisplay:10.37,2013-08-13 08:06:00,
2013-08-13 04:11:00,54.7,51.2,29.84,WNW,285,3.5,3.5,88,0.00,CLR,,0.00,WeatherDisplay:10.37,2013-08-13 08:11:00,
2013-08-13 04:16:00,54.5,50.7,29.84,NW,312,0.0,0.0,87,0.00,CLR,,0.00,WeatherDisplay:10.37,2013-08-13 08:16:00,
2013-08-13 04:21:00,54.3,50.5,29.84,NW,313,4.6,4.6,87,0.00,CLR,,0.00,WeatherDisplay:10.37,2013-08-13 08:21:00,
2013-08-13 04:26:00,54.1,50.3,29.84,WNW,296,3.5,3.5,87,0.00,CLR,,0.00,WeatherDisplay:10.37,2013-08-13 08:26:00,
2013-08-13 04:31:00,53.9,49.8,29.84,WNW,299,0.0,0.0,86,0.00,CLR,,0.00,WeatherDisplay:10.37,2013-08-13 08:31:00,
2013-08-13 04:36:00,53.7,49.6,29.84,WNW,296,0.0,0.0,86,0.00,CLR,,0.00,WeatherDisplay:10.37,2013-08-13 08:36:00,
2013-08-13 04:41:00,53.5,49.1,29.84,NW,307,0.0,0.0,85,0.00,CLR,,0.00,WeatherDisplay:10.37,2013-08-13 08:41:00,
2013-08-13 04:46:00,53.4,49.3,29.84,NW,325,1.1,0.0,86,0.00,CLR,,0.00,WeatherDisplay:10.37,2013-08-13 08:46:00,
2013-08-13 04:51:00,53.3,48.9,29.84,NW,315,3.5,3.5,85,0.00,CLR,,0.00,WeatherDisplay:10.37,2013-08-13 08:51:00,
2013-08-13 04:56:00,53.2,48.8,29.84,WNW,283,5.0,5.0,85,0.00,CLR,,0.00,WeatherDisplay:10.37,2013-08-13 08:56:00,
2013-08-13 05:01:00,53.0,48.3,29.85,NNW,340,3.5,3.5,84,0.00,CLR,,0.00,WeatherDisplay:10.37,2013-08-13 09:01:00,
2013-08-13 05:06:00,52.9,48.5,29.85,NNW,331,0.0,0.0,85,0.00,CLR,,0.00,WeatherDisplay:10.37,2013-08-13 09:06:00,
2013-08-13 05:11:00,52.7,48.3,29.85,NW,314,1.1,1.1,85,0.00,CLR,,0.00,WeatherDisplay:10.37,2013-08-13 09:11:00,
2013-08-13 05:16:00,52.5,48.1,29.85,NNW,344,0.0,0.0,85,0.00,CLR,,0.00,WeatherDisplay:10.37,2013-08-13 09:16:00,
2013-08-13 05:21:00,52.5,48.1,29.85,NNW,337,4.0,4.0,85,0.00,CLR,,0.00,WeatherDisplay:10.37,2013-08-13 09:21:00,
2013-08-13 05:26:00,52.3,47.9,29.85,NNW,343,0.0,0.0,85,0.00,CLR,,0.00,WeatherDisplay:10.37,2013-08-13 09:26:00,
2013-08-13 05:31:00,52.1,48.0,29.85,NNW,344,0.0,0.0,86,0.00,CLR,,0.00,WeatherDisplay:10.37,2013-08-13 09:31:00,
2013-08-13 05:36:00,51.9,47.8,29.85,NNW,341,1.1,1.1,86,0.00,CLR,,0.00,WeatherDisplay:10.37,2013-08-13 09:36:00,
2013-08-13 05:41:00,51.8,47.7,29.86,NNW,342,0.0,0.0,86,0.00,CLR,,0.00,WeatherDisplay:10.37,2013-08-13 09:41:00,
2013-08-13 05:46:00,51.5,47.8,29.86,NNW,342,0.0,0.0,87,0.00,CLR,,0.00,WeatherDisplay:10.37,2013-08-13 09:46:00,
2013-08-13 05:51:00,51.3,47.6,29.86,NNW,340,3.5,3.5,87,0.00,CLR,,0.00,WeatherDisplay:10.37,2013-08-13 09:51:00,
2013-08-13 05:56:00,51.0,47.3,29.86,NNW,340,0.0,0.0,87,0.00,CLR,,0.00,WeatherDisplay:10.37,2013-08-13 09:56:00,
2013-08-13 06:01:00,50.8,47.4,29.86,NNW,340,0.0,0.0,88,0.00,CLR,,0.00,WeatherDisplay:10.37,2013-08-13 10:01:00,
2013-08-13 06:06:00,50.6,47.5,29.87,NNW,340,0.0,0.0,89,0.00,CLR,,0.00,WeatherDisplay:10.37,2013-08-13 10:06:00,
2013-08-13 06:11:00,50.3,47.2,29.87,NNW,340,0.0,0.0,89,0.00,CLR,,0.00,WeatherDisplay:10.37,2013-08-13 10:11:00,
2013-08-13 06:16:00,50.1,47.3,29.87,NNW,340,0.0,0.0,90,0.00,CLR,,0.00,WeatherDisplay:10.37,2013-08-13 10:16:00,
2013-08-13 06:21:00,50.0,47.2,29.88,NNW,340,0.0,0.0,90,0.00,CLR,,0.00,WeatherDisplay:10.37,2013-08-13 10:21:00,
2013-08-13 06:26:00,49.9,47.1,29.88,NNW,340,0.0,0.0,90,0.00,CLR,,0.00,WeatherDisplay:10.37,2013-08-13 10:26:00,
2013-08-13 06:31:00,49.8,47.0,29.88,NNW,340,0.0,0.0,90,0.00,CLR,,0.00,WeatherDisplay:10.37,2013-08-13 10:31:00,
2013-08-13 06:36:00,49.6,46.8,29.88,NNW,340,0.0,0.0,90,0.00,CLR,,0.00,WeatherDisplay:10.37,2013-08-13 10:36:00,
2013-08-13 06:41:00,49.5,46.7,29.89,NNW,340,0.0,0.0,90,0.00,CLR,,0.00,WeatherDisplay:10.37,2013-08-13 10:41:00,
2013-08-13 06:46:00,49.2,46.4,29.89,NNW,340,0.0,0.0,90,0.00,CLR,,0.00,WeatherDisplay:10.37,2013-08-13 10:46:00,
2013-08-13 06:51:00,49.0,46.2,29.89,NNW,340,0.0,0.0,90,0.00,CLR,,0.00,WeatherDisplay:10.37,2013-08-13 10:51:00,
2013-08-13 06:56:00,48.7,46.2,29.89,NNW,340,0.0,0.0,91,0.00,CLR,,0.00,WeatherDisplay:10.37,2013-08-13 10:56:00,
2013-08-13 07:01:00,48.5,46.0,29.89,NNW,340,1.0,0.0,91,0.00,CLR,,0.00,WeatherDisplay:10.37,2013-08-13 11:01:00,
2013-08-13 07:06:00,48.4,45.9,29.90,NNW,340,0.0,0.0,91,0.00,CLR,,0.00,WeatherDisplay:10.37,2013-08-13 11:06:00,
2013-08-13 07:11:00,48.4,46.2,29.90,NNW,340,0.0,0.0,92,0.00,CLR,,0.00,WeatherDisplay:10.37,2013-08-13 11:11:00,
2013-08-13 07:16:00,48.4,46.2,29.90,NNW,340,0.0,0.0,92,0.00,CLR,,0.00,WeatherDisplay:10.37,2013-08-13 11:16:00,
2013-08-13 07:21:00,48.4,46.2,29.90,NNW,340,0.0,0.0,92,0.00,CLR,,0.00,WeatherDisplay:10.37,2013-08-13 11:21:00,
2013-08-13 07:26:00,48.5,46.3,29.91,NNW,340,0.0,0.0,92,0.00,CLR,,0.00,WeatherDisplay:10.37,2013-08-13 11:26:00,
2013-08-13 07:31:00,48.7,46.5,29.91,NNW,341,3.5,0.0,92,0.00,CLR,,0.00,WeatherDisplay:10.37,2013-08-13 11:31:00,
2013-08-13 07:36:00,48.9,46.7,29.91,NNW,341,0.0,0.0,92,0.00,CLR,,0.00,WeatherDisplay:10.37,2013-08-13 11:36:00,
2013-08-13 07:41:00,49.1,46.9,29.91,NNW,341,0.0,0.0,92,0.00,CLR,,0.00,WeatherDisplay:10.37,2013-08-13 11:41:00,
2013-08-13 07:46:00,49.3,46.8,29.91,NNW,341,0.0,0.0,91,0.00,CLR,,0.00,WeatherDisplay:10.37,2013-08-13 11:46:00,
2013-08-13 07:51:00,49.6,47.1,29.91,NNW,341,0.0,0.0,91,0.00,CLR,,0.00,WeatherDisplay:10.37,2013-08-13 11:51:00,
2013-08-13 07:56:00,50.0,47.5,29.91,NNW,338,3.5,3.5,91,0.00,CLR,,0.00,WeatherDisplay:10.37,2013-08-13 11:56:00,
2013-08-13 08:01:00,50.5,47.7,29.91,NNW,337,0.0,0.0,90,0.00,CLR,,0.00,WeatherDisplay:10.37,2013-08-13 12:01:00,
2013-08-13 08:06:00,50.9,47.5,29.91,WSW,257,1.1,0.0,88,0.00,CLR,,0.00,WeatherDisplay:10.37,2013-08-13 12:06:00,
2013-08-13 08:11:00,51.2,47.8,29.91,West,263,1.1,1.1,88,0.00,CLR,,0.00,WeatherDisplay:10.37,2013-08-13 12:11:00,
2013-08-13 08:16:00,51.5,47.8,29.92,West,264,2.0,2.0,87,0.00,CLR,,0.00,WeatherDisplay:10.37,2013-08-13 12:16:00,
2013-08-13 08:21:00,51.9,47.5,29.92,NW,306,5.8,5.8,85,0.00,CLR,,0.00,WeatherDisplay:10.37,2013-08-13 12:21:00,
2013-08-13 08:26:00,52.2,47.8,29.92,NW,312,3.5,0.0,85,0.00,CLR,,0.00,WeatherDisplay:10.37,2013-08-13 12:26:00,
2013-08-13 08:31:00,52.6,47.6,29.92,WNW,301,4.6,4.6,83,0.00,CLR,,0.00,WeatherDisplay:10.37,2013-08-13 12:31:00,
2013-08-13 08:36:00,53.0,48.0,29.92,WNW,296,3.5,3.5,83,0.00,CLR,,0.00,WeatherDisplay:10.37,2013-08-13 12:36:00,
2013-08-13 08:41:00,53.3,47.9,29.93,NW,307,11.5,11.5,82,0.00,CLR,,0.00,WeatherDisplay:10.37,2013-08-13 12:41:00,
2013-08-13 08:46:00,53.7,48.3,29.93,NW,310,1.1,0.0,82,0.00,CLR,,0.00,WeatherDisplay:10.37,2013-08-13 12:46:00,
2013-08-13 08:51:00,54.1,48.7,29.93,NW,323,1.1,1.1,82,0.00,CLR,,0.00,WeatherDisplay:10.37,2013-08-13 12:51:00,
2013-08-13 08:56:00,54.6,48.9,29.93,NW,322,3.0,3.0,81,0.00,CLR,,0.00,WeatherDisplay:10.37,2013-08-13 12:56:00,
2013-08-13 09:01:00,54.9,48.5,29.93,NNW,338,2.3,2.3,79,0.00,CLR,,0.00,WeatherDisplay:10.37,2013-08-13 13:01:00,
2013-08-13 09:06:00,55.2,48.8,29.93,NW,315,11.5,11.5,79,0.00,CLR,,0.00,WeatherDisplay:10.37,2013-08-13 13:06:00,
2013-08-13 09:11:00,55.2,48.5,29.93,SSE,153,3.5,3.5,78,0.00,CLR,,0.00,WeatherDisplay:10.37,2013-08-13 13:11:00,
2013-08-13 09:16:00,55.4,48.3,29.93,NNW,342,2.3,2.3,77,0.00,CLR,,0.00,WeatherDisplay:10.37,2013-08-13 13:16:00,
2013-08-13 09:22:00,55.5,48.1,29.93,WNW,295,0.0,0.0,76,0.00,CLR,,0.00,WeatherDisplay:10.37,2013-08-13 13:22:00,
2013-08-13 09:27:00,56.0,48.5,29.94,NW,313,4.6,4.6,76,0.00,CLR,,0.00,WeatherDisplay:10.37,2013-08-13 13:27:00,
2013-08-13 09:32:00,56.4,48.9,29.94,SSW,192,0.0,0.0,76,0.00,CLR,,0.00,WeatherDisplay:10.37,2013-08-13 13:32:00,
2013-08-13 09:37:00,56.5,48.3,29.94,West,280,2.3,2.3,74,0.00,CLR,,0.00,WeatherDisplay:10.37,2013-08-13 13:37:00,
2013-08-13 09:42:00,56.8,48.6,29.94,NW,321,3.5,3.5,74,0.00,CLR,,0.00,WeatherDisplay:10.37,2013-08-13 13:42:00,
2013-08-13 09:47:00,56.9,48.3,29.94,NNW,343,12.7,12.7,73,0.00,CLR,,0.00,WeatherDisplay:10.37,2013-08-13 13:47:00,
2013-08-13 09:52:00,57.0,48.1,29.95,NNW,327,9.2,9.2,72,0.00,CLR,,0.00,WeatherDisplay:10.37,2013-08-13 13:52:00,
2013-08-13 09:57:00,57.2,48.3,29.95,NW,319,0.0,0.0,72,0.00,CLR,,0.00,WeatherDisplay:10.37,2013-08-13 13:57:00,
2013-08-13 10:02:00,57.7,48.4,29.94,North,349,1.1,1.1,71,0.00,CLR,,0.00,WeatherDisplay:10.37,2013-08-13 14:02:00,
2013-08-13 10:07:00,58.0,48.6,29.94,North,5,3.5,3.5,71,0.00,CLR,,0.00,WeatherDisplay:10.37,2013-08-13 14:07:00,
2013-08-13 10:12:00,58.0,48.6,29.94,North,5,1.1,0.0,71,0.00,CLR,,0.00,WeatherDisplay:10.37,2013-08-13 14:12:00,
2013-08-13 10:17:00,58.0,48.3,29.95,NW,323,0.0,0.0,70,0.00,CLR,,0.00,WeatherDisplay:10.37,2013-08-13 14:17:00,
2013-08-13 10:22:00,58.4,48.7,29.95,West,278,4.6,4.6,70,0.00,CLR,,0.00,WeatherDisplay:10.37,2013-08-13 14:22:00,
2013-08-13 10:27:00,58.7,48.6,29.95,WNW,299,16.0,16.0,69,0.00,CLR,,0.00,WeatherDisplay:10.37,2013-08-13 14:27:00,
2013-08-13 10:32:00,58.6,48.1,29.95,West,270,3.5,3.5,68,0.00,CLR,,0.00,WeatherDisplay:10.37,2013-08-13 14:32:00,
2013-08-13 10:37:00,58.7,48.2,29.95,WNW,291,4.6,4.6,68,0.00,CLR,,0.00,WeatherDisplay:10.37,2013-08-13 14:37:00,
2013-08-13 10:42:00,59.0,48.8,29.95,NW,325,3.5,3.5,69,0.00,CLR,,0.00,WeatherDisplay:10.37,2013-08-13 14:42:00,
2013-08-13 10:47:00,59.4,48.8,29.95,NW,326,1.1,0.0,68,0.00,CLR,,0.00,WeatherDisplay:10.37,2013-08-13 14:47:00,
2013-08-13 10:52:00,60.2,48.8,29.95,NE,42,3.5,3.5,66,0.00,CLR,,0.00,WeatherDisplay:10.37,2013-08-13 14:52:00,
2013-08-13 10:57:00,60.7,48.9,29.95,SE,125,11.5,11.5,65,0.00,CLR,,0.00,WeatherDisplay:10.37,2013-08-13 14:57:00,
2013-08-13 11:02:00,60.8,48.1,29.95,NNE,21,3.5,3.5,63,0.00,CLR,,0.00,WeatherDisplay:10.37,2013-08-13 15:02:00,
2013-08-13 11:07:00,60.7,48.4,29.96,West,278,1.1,1.1,64,0.00,CLR,,0.00,WeatherDisplay:10.37,2013-08-13 15:07:00,
2013-08-13 11:12:00,60.7,48.9,29.95,ENE,59,3.5,3.5,65,0.00,CLR,,0.00,WeatherDisplay:10.37,2013-08-13 15:12:00,
2013-08-13 11:17:00,61.0,48.3,29.95,NW,313,2.3,2.3,63,0.00,CLR,,0.00,WeatherDisplay:10.37,2013-08-13 15:17:00,
2013-08-13 11:22:00,61.9,49.2,29.95,NNW,328,2.0,0.0,63,0.00,CLR,,0.00,WeatherDisplay:10.37,2013-08-13 15:22:00,
2013-08-13 11:27:00,62.1,48.5,29.95,West,270,1.1,0.0,61,0.00,CLR,,0.00,WeatherDisplay:10.37,2013-08-13 15:27:00,
2013-08-13 11:32:00,62.4,49.2,29.96,East,87,1.1,1.1,62,0.00,CLR,,0.00,WeatherDisplay:10.37,2013-08-13 15:32:00,
2013-08-13 11:37:00,62.7,49.5,29.96,WNW,291,4.0,4.0,62,0.00,CLR,,0.00,WeatherDisplay:10.37,2013-08-13 15:37:00,
2013-08-13 11:42:00,62.7,48.2,29.96,SW,229,3.5,3.5,59,0.00,CLR,,0.00,WeatherDisplay:10.37,2013-08-13 15:42:00,
2013-08-13 11:47:00,62.7,50.3,29.96,SW,231,3.5,3.5,64,0.00,CLR,,0.00,WeatherDisplay:10.37,2013-08-13 15:47:00,
2013-08-13 11:52:00,62.7,49.5,29.96,NW,317,4.0,4.0,62,0.00,CLR,,0.00,WeatherDisplay:10.37,2013-08-13 15:52:00,
2013-08-13 11:57:00,62.3,48.7,29.96,WNW,286,1.1,0.0,61,0.00,CLR,,0.00,WeatherDisplay:10.37,2013-08-13 15:57:00,
2013-08-13 12:02:00,61.9,49.2,29.96,WNW,292,2.3,2.3,63,0.00,CLR,,0.00,WeatherDisplay:10.37,2013-08-13 16:02:00,
2013-08-13 12:07:00,62.1,49.8,29.95,North,355,1.1,1.1,64,0.00,CLR,,0.00,WeatherDisplay:10.37,2013-08-13 16:07:00,
2013-08-13 12:12:00,63.3,49.6,29.96,West,275,9.2,9.2,61,0.00,CLR,,0.00,WeatherDisplay:10.37,2013-08-13 16:12:00,
2013-08-13 12:17:00,63.7,50.0,29.95,SW,225,1.1,1.1,61,0.00,CLR,,0.00,WeatherDisplay:10.37,2013-08-13 16:17:00,
2013-08-13 12:22:00,64.2,48.6,29.95,WNW,302,11.5,11.5,57,0.00,CLR,,0.00,WeatherDisplay:10.37,2013-08-13 16:22:00,
2013-08-13 12:27:00,64.0,49.4,29.95,NNW,336,6.0,6.0,59,0.00,CLR,,0.00,WeatherDisplay:10.37,2013-08-13 16:27:00,
2013-08-13 12:32:00,64.3,48.3,29.94,NE,36,6.9,6.9,56,0.00,CLR,,0.00,WeatherDisplay:10.37,2013-08-13 16:32:00,
2013-08-13 12:37:00,64.6,49.0,29.95,NNW,340,5.8,5.8,57,0.00,CLR,,0.00,WeatherDisplay:10.37,2013-08-13 16:37:00,
2013-08-13 12:42:00,64.6,49.5,29.95,NNW,341,2.3,2.3,58,0.00,CLR,,0.00,WeatherDisplay:10.37,2013-08-13 16:42:00,
2013-08-13 12:47:00,64.8,49.7,29.95,NNW,342,1.1,1.1,58,0.00,CLR,,0.00,WeatherDisplay:10.37,2013-08-13 16:47:00,
2013-08-13 12:52:00,65.0,48.9,29.95,SSE,157,3.5,3.5,56,0.00,CLR,,0.00,WeatherDisplay:10.37,2013-08-13 16:52:00,
2013-08-13 12:57:00,65.0,48.4,29.95,North,5,4.0,4.0,55,0.00,CLR,,0.00,WeatherDisplay:10.37,2013-08-13 16:57:00,
2013-08-13 12:58:00,65.1,49.0,29.95,NNW,346,8.0,8.0,56,0.00,CLR,,0.00,WeatherDisplay:10.37,2013-08-13 16:58:00,
2013-08-13 13:03:00,65.3,47.7,29.94,WNW,297,3.0,3.0,53,0.00,CLR,,0.00,WeatherDisplay:10.37,2013-08-13 17:03:00,
2013-08-13 13:08:00,64.8,48.7,29.95,NNW,341,2.3,2.3,56,0.00,CLR,,0.00,WeatherDisplay:10.37,2013-08-13 17:08:00,
2013-08-13 13:13:00,64.0,48.0,29.95,SW,225,4.6,4.6,56,0.00,CLR,,0.00,WeatherDisplay:10.37,2013-08-13 17:13:00,
2013-08-13 13:18:00,63.8,49.2,29.95,East,98,4.0,4.0,59,0.00,CLR,,0.00,WeatherDisplay:10.37,2013-08-13 17:18:00,
2013-08-13 13:23:00,64.4,48.4,29.94,NNE,18,10.4,10.4,56,0.00,CLR,,0.00,WeatherDisplay:10.37,2013-08-13 17:23:00,
2013-08-13 13:28:00,65.1,48.0,29.94,WNW,287,6.9,6.9,54,0.00,CLR,,0.00,WeatherDisplay:10.37,2013-08-13 17:28:00,
2013-08-13 13:33:00,65.3,50.6,29.94,NNW,332,6.9,6.9,59,0.00,CLR,,0.00,WeatherDisplay:10.37,2013-08-13 17:33:00,
2013-08-13 13:38:00,64.9,48.3,29.94,WNW,284,3.5,3.5,55,0.00,CLR,,0.00,WeatherDisplay:10.37,2013-08-13 17:38:00,
2013-08-13 13:43:00,64.6,48.1,29.94,WSW,244,5.8,5.8,55,0.00,CLR,,0.00,WeatherDisplay:10.37,2013-08-13 17:43:00,
2013-08-13 13:48:00,65.2,49.6,29.94,East,79,4.6,4.6,57,0.00,CLR,,0.00,WeatherDisplay:10.37,2013-08-13 17:48:00,
2013-08-13 13:53:00,65.8,47.7,29.94,ENE,65,5.8,5.8,52,0.00,CLR,,0.00,WeatherDisplay:10.37,2013-08-13 17:53:00,
2013-08-13 13:58:00,65.4,48.3,29.94,SW,225,1.1,0.0,54,0.00,CLR,,0.00,WeatherDisplay:10.37,2013-08-13 17:58:00,
2013-08-13 14:03:00,65.0,48.4,29.94,SSW,205,5.0,5.0,55,0.00,CLR,,0.00,WeatherDisplay:10.37,2013-08-13 18:03:00,
2013-08-13 14:08:00,64.8,48.7,29.94,WNW,296,0.0,0.0,56,0.00,CLR,,0.00,WeatherDisplay:10.37,2013-08-13 18:08:00,
2013-08-13 14:13:00,65.4,49.3,29.94,WSW,238,2.3,2.3,56,0.00,CLR,,0.00,WeatherDisplay:10.37,2013-08-13 18:13:00,
2013-08-13 14:18:00,65.6,48.5,29.94,WNW,287,1.0,1.0,54,0.00,CLR,,0.00,WeatherDisplay:10.37,2013-08-13 18:18:00,
2013-08-13 14:23:00,65.1,48.5,29.94,NNE,15,2.3,2.3,55,0.00,CLR,,0.00,WeatherDisplay:10.37,2013-08-13 18:23:00,
2013-08-13 14:28:00,64.9,49.3,29.94,NNE,13,0.0,0.0,57,0.00,CLR,,0.00,WeatherDisplay:10.37,2013-08-13 18:28:00,
2013-08-13 14:33:00,64.8,49.2,29.94,NW,315,1.1,0.0,57,0.00,CLR,,0.00,WeatherDisplay:10.37,2013-08-13 18:33:00,
2013-08-13 14:38:00,64.8,49.2,29.94,North,5,3.0,3.0,57,0.00,CLR,,0.00,WeatherDisplay:10.37,2013-08-13 18:38:00,
2013-08-13 14:43:00,65.4,48.8,29.94,East,88,5.8,5.8,55,0.00,CLR,,0.00,WeatherDisplay:10.37,2013-08-13 18:43:00,
2013-08-13 14:48:00,66.1,48.5,29.94,East,95,1.1,1.1,53,0.00,CLR,,0.00,WeatherDisplay:10.37,2013-08-13 18:48:00,
2013-08-13 14:53:00,66.7,50.0,29.94,WSW,241,5.8,5.8,55,0.00,CLR,,0.00,WeatherDisplay:10.37,2013-08-13 18:53:00,
2013-08-13 14:58:00,65.7,47.1,29.94,ENE,76,9.2,9.2,51,0.00,CLR,,0.00,WeatherDisplay:10.37,2013-08-13 18:58:00,
2013-08-13 15:03:00,64.8,48.2,29.94,NE,36,3.5,3.5,55,0.00,CLR,,0.00,WeatherDisplay:10.37,2013-08-13 19:03:00,
2013-08-13 15:08:00,65.4,49.3,29.94,NW,311,4.6,4.6,56,0.00,CLR,,0.00,WeatherDisplay:10.37,2013-08-13 19:08:00,
2013-08-13 15:13:00,66.0,46.3,29.94,SW,224,11.5,11.5,49,0.00,CLR,,0.00,WeatherDisplay:10.37,2013-08-13 19:13:00,
2013-08-13 15:18:00,65.9,48.3,29.94,WNW,296,3.5,3.5,53,0.00,CLR,,0.00,WeatherDisplay:10.37,2013-08-13 19:18:00,
2013-08-13 15:23:00,66.4,47.7,29.94,SW,219,9.2,9.2,51,0.00,CLR,,0.00,WeatherDisplay:10.37,2013-08-13 19:23:00,
2013-08-13 15:28:00,66.9,49.7,29.94,WNW,300,3.5,3.5,54,0.00,CLR,,0.00,WeatherDisplay:10.37,2013-08-13 19:28:00,
2013-08-13 15:33:00,67.7,49.4,29.94,East,96,3.0,3.0,52,0.00,CLR,,0.00,WeatherDisplay:10.37,2013-08-13 19:33:00,
2013-08-13 15:38:00,67.0,48.3,29.95,SSW,210,10.4,10.4,51,0.00,CLR,,0.00,WeatherDisplay:10.37,2013-08-13 19:38:00,
2013-08-13 15:43:00,65.9,47.3,29.94,West,277,3.5,3.5,51,0.00,CLR,,0.00,WeatherDisplay:10.37,2013-08-13 19:43:00,
2013-08-13 15:48:00,65.7,47.1,29.94,WSW,248,2.3,2.3,51,0.00,CLR,,0.00,WeatherDisplay:10.37,2013-08-13 19:48:00,
2013-08-13 15:53:00,66.3,47.6,29.94,NW,325,9.2,9.2,51,0.00,CLR,,0.00,WeatherDisplay:10.37,2013-08-13 19:53:00,
2013-08-13 15:58:00,66.0,47.9,29.94,ENE,78,13.8,13.8,52,0.00,CLR,,0.00,WeatherDisplay:10.37,2013-08-13 19:58:00,
2013-08-13 16:03:00,65.0,46.9,29.95,NW,305,0.0,1.2,52,0.00,CLR,,0.00,WeatherDisplay:10.37,2013-08-13 20:03:00,
2013-08-13 16:08:00,64.6,47.6,29.95,NW,319,1.1,1.1,54,0.00,CLR,,0.00,WeatherDisplay:10.37,2013-08-13 20:08:00,
2013-08-13 16:13:00,64.3,46.8,29.95,South,172,2.3,2.3,53,0.00,CLR,,0.00,WeatherDisplay:10.37,2013-08-13 20:13:00,
2013-08-13 16:18:00,64.4,47.9,29.95,SW,227,2.3,2.3,55,0.00,CLR,,0.00,WeatherDisplay:10.37,2013-08-13 20:18:00,
2013-08-13 16:23:00,65.0,47.4,29.95,North,9,3.5,3.5,53,0.00,CLR,,0.00,WeatherDisplay:10.37,2013-08-13 20:23:00,
2013-08-13 16:28:00,65.3,46.7,29.95,North,11,10.4,10.4,51,0.00,CLR,,0.00,WeatherDisplay:10.37,2013-08-13 20:28:00,
2013-08-13 16:33:00,65.0,47.4,29.95,WSW,237,3.5,3.5,53,0.00,CLR,,0.00,WeatherDisplay:10.37,2013-08-13 20:33:00,
2013-08-13 16:38:00,65.0,48.9,29.96,ENE,63,4.6,4.6,56,0.00,CLR,,0.00,WeatherDisplay:10.37,2013-08-13 20:38:00,
2013-08-13 16:43:00,65.3,49.2,29.96,East,80,3.5,3.5,56,0.00,CLR,,0.00,WeatherDisplay:10.37,2013-08-13 20:43:00,
2013-08-13 16:48:00,65.0,47.9,29.96,NNW,327,3.5,3.5,54,0.00,CLR,,0.00,WeatherDisplay:10.37,2013-08-13 20:48:00,
2013-08-13 16:53:00,64.6,49.0,29.96,NNW,341,2.0,2.0,57,0.00,CLR,,0.00,WeatherDisplay:10.37,2013-08-13 20:53:00,
2013-08-13 16:58:00,64.4,47.9,29.96,NNE,33,3.5,3.5,55,0.00,CLR,,0.00,WeatherDisplay:10.37,2013-08-13 20:58:00,
2013-08-13 17:03:00,64.7,48.2,29.96,NW,304,3.5,3.5,55,0.00,CLR,,0.00,WeatherDisplay:10.37,2013-08-13 21:03:00,
2013-08-13 17:08:00,64.6,48.1,29.96,SW,234,3.5,3.5,55,0.00,CLR,,0.00,WeatherDisplay:10.37,2013-08-13 21:08:00,
2013-08-13 17:13:00,64.3,48.7,29.96,NNW,344,3.5,3.5,57,0.00,CLR,,0.00,WeatherDisplay:10.37,2013-08-13 21:13:00,
2013-08-13 17:18:00,63.9,47.9,29.96,NNW,328,3.5,3.5,56,0.00,CLR,,0.00,WeatherDisplay:10.37,2013-08-13 21:18:00,
2013-08-13 17:23:00,63.6,49.0,29.96,NNW,330,3.5,3.5,59,0.00,CLR,,0.00,WeatherDisplay:10.37,2013-08-13 21:23:00,
2013-08-13 17:28:00,63.3,48.7,29.96,WNW,285,2.3,2.3,59,0.00,CLR,,0.00,WeatherDisplay:10.37,2013-08-13 21:28:00,
2013-08-13 17:33:00,63.0,48.9,29.96,North,355,0.0,0.0,60,0.00,CLR,,0.00,WeatherDisplay:10.37,2013-08-13 21:33:00,
2013-08-13 17:38:00,62.8,50.0,29.97,NW,310,3.5,3.5,63,0.00,CLR,,0.00,WeatherDisplay:10.37,2013-08-13 21:38:00,
2013-08-13 17:43:00,62.3,49.1,29.97,WNW,296,0.0,0.0,62,0.00,CLR,,0.00,WeatherDisplay:10.37,2013-08-13 21:43:00,
2013-08-13 17:48:00,62.1,49.8,29.97,NNE,30,0.0,0.3,64,0.00,CLR,,0.00,WeatherDisplay:10.37,2013-08-13 21:48:00,
2013-08-13 17:53:00,61.9,49.6,29.97,NW,321,1.1,1.1,64,0.00,CLR,,0.00,WeatherDisplay:10.37,2013-08-13 21:53:00,
2013-08-13 17:58:00,61.9,48.7,29.97,NW,323,1.0,1.0,62,0.00,CLR,,0.00,WeatherDisplay:10.37,2013-08-13 21:58:00,
2013-08-13 18:03:00,61.9,48.7,29.98,ENE,70,0.0,0.0,62,0.00,CLR,,0.00,WeatherDisplay:10.37,2013-08-13 22:03:00,
2013-08-13 18:08:00,61.8,47.8,29.98,WNW,296,4.6,4.6,60,0.00,CLR,,0.00,WeatherDisplay:10.37,2013-08-13 22:08:00,
2013-08-13 18:13:00,61.7,48.5,29.98,North,5,0.0,0.1,62,0.00,CLR,,0.00,WeatherDisplay:10.37,2013-08-13 22:13:00,
2013-08-13 18:18:00,61.4,48.3,29.98,WNW,303,3.5,3.5,62,0.00,CLR,,0.00,WeatherDisplay:10.37,2013-08-13 22:18:00,
2013-08-13 18:23:00,61.1,49.2,29.98,West,271,0.0,0.0,65,0.00,CLR,,0.00,WeatherDisplay:10.37,2013-08-13 22:23:00,
2013-08-13 18:28:00,61.0,47.9,29.98,SW,221,6.9,6.9,62,0.00,CLR,,0.00,WeatherDisplay:10.37,2013-08-13 22:28:00,
2013-08-13 18:33:00,60.8,48.5,29.99,SW,224,2.3,2.3,64,0.00,CLR,,0.00,WeatherDisplay:10.37,2013-08-13 22:33:00,
2013-08-13 18:38:00,60.5,48.7,29.98,ESE,110,0.0,0.0,65,0.00,CLR,,0.00,WeatherDisplay:10.37,2013-08-13 22:38:00,
2013-08-13 18:44:00,60.3,48.1,29.98,WNW,302,1.1,1.2,64,0.00,CLR,,0.00,WeatherDisplay:10.37,2013-08-13 22:44:00,
2013-08-13 18:49:00,60.3,48.9,29.98,WNW,294,0.0,0.0,66,0.00,CLR,,0.00,WeatherDisplay:10.37,2013-08-13 22:49:00,
2013-08-13 18:54:00,60.1,48.7,29.98,South,184,2.3,2.3,66,0.00,CLR,,0.00,WeatherDisplay:10.37,2013-08-13 22:54:00,
2013-08-13 18:59:00,60.0,48.6,29.98,NE,49,3.5,3.5,66,0.00,CLR,,0.00,WeatherDisplay:10.37,2013-08-13 22:59:00,
2013-08-13 19:04:00,60.0,48.6,29.98,ESE,103,0.0,0.0,66,0.00,CLR,,0.00,WeatherDisplay:10.37,2013-08-13 23:04:00,
2013-08-13 19:09:00,60.1,48.3,29.98,NNW,332,2.3,2.3,65,0.00,CLR,,0.00,WeatherDisplay:10.37,2013-08-13 23:09:00,
2013-08-13 19:14:00,60.0,49.0,29.98,WNW,298,3.5,3.5,67,0.00,CLR,,0.00,WeatherDisplay:10.37,2013-08-13 23:14:00,
2013-08-13 19:19:00,59.9,49.3,29.98,WNW,298,0.0,0.0,68,0.00,CLR,,0.00,WeatherDisplay:10.37,2013-08-13 23:19:00,
2013-08-13 19:24:00,59.8,48.4,29.99,NW,318,2.3,2.3,66,0.00,CLR,,0.00,WeatherDisplay:10.37,2013-08-13 23:24:00,
2013-08-13 19:29:00,59.7,49.1,29.98,NW,312,10.4,10.4,68,0.00,CLR,,0.00,WeatherDisplay:10.37,2013-08-13 23:29:00,
2013-08-13 19:34:00,59.5,48.1,29.99,NE,56,3.5,3.5,66,0.00,CLR,,0.00,WeatherDisplay:10.37,2013-08-13 23:34:00,
2013-08-13 19:39:00,59.4,48.4,29.99,ENE,64,0.0,0.0,67,0.00,CLR,,0.00,WeatherDisplay:10.37,2013-08-13 23:39:00,
2013-08-13 19:44:00,59.2,48.2,29.99,NNW,344,1.1,1.1,67,0.00,CLR,,0.00,WeatherDisplay:10.37,2013-08-13 23:44:00,
2013-08-13 19:49:00,59.0,48.4,29.99,NE,52,0.0,0.0,68,0.00,CLR,,0.00,WeatherDisplay:10.37,2013-08-13 23:49:00,
2013-08-13 19:54:00,59.0,48.8,29.99,NW,316,0.0,0.0,69,0.00,CLR,,0.00,WeatherDisplay:10.37,2013-08-13 23:54:00,
2013-08-13 19:59:00,59.0,48.8,29.99,NW,319,0.0,0.0,69,0.00,CLR,,0.00,WeatherDisplay:10.37,2013-08-13 23:59:00,
2013-08-13 20:04:00,58.8,48.6,29.99,NW,317,0.0,0.0,69,0.00,CLR,,0.00,WeatherDisplay:10.37,2013-08-14 00:04:00,
2013-08-13 20:09:00,58.5,48.7,29.99,NW,307,2.3,2.3,70,0.00,CLR,,0.00,WeatherDisplay:10.37,2013-08-14 00:09:00,
2013-08-13 20:14:00,58.2,48.1,29.99,West,280,3.5,3.5,69,0.00,CLR,,0.00,WeatherDisplay:10.37,2013-08-14 00:14:00,
2013-08-13 20:19:00,58.1,48.4,29.99,WNW,287,0.0,0.0,70,0.00,CLR,,0.00,WeatherDisplay:10.37,2013-08-14 00:19:00,
2013-08-13 20:24:00,57.9,48.2,29.99,NW,313,1.1,0.0,70,0.00,CLR,,0.00,WeatherDisplay:10.37,2013-08-14 00:24:00,
2013-08-13 20:29:00,57.7,48.4,29.99,NW,316,0.0,0.0,71,0.00,CLR,,0.00,WeatherDisplay:10.37,2013-08-14 00:29:00,
2013-08-13 20:34:00,57.4,48.4,29.99,NW,313,0.0,0.0,72,0.00,CLR,,0.00,WeatherDisplay:10.37,2013-08-14 00:34:00,
2013-08-13 20:39:00,57.3,47.2,30.00,NW,307,4.6,4.6,69,0.00,CLR,,0.00,WeatherDisplay:10.37,2013-08-14 00:39:00,
2013-08-13 20:44:00,57.2,47.5,29.99,NW,321,1.1,1.1,70,0.00,CLR,,0.00,WeatherDisplay:10.37,2013-08-14 00:44:00,
2013-08-13 20:49:00,57.2,46.7,29.99,NW,321,0.0,0.0,68,0.00,CLR,,0.00,WeatherDisplay:10.37,2013-08-14 00:49:00,
2013-08-13 20:54:00,57.1,47.0,29.99,NW,321,0.0,0.0,69,0.00,CLR,,0.00,WeatherDisplay:10.37,2013-08-14 00:54:00,
2013-08-13 20:59:00,57.1,46.6,29.99,NW,321,1.1,1.1,68,0.00,CLR,,0.00,WeatherDisplay:10.37,2013-08-14 00:59:00,
2013-08-13 21:04:00,57.0,46.5,29.99,West,261,0.0,0.0,68,0.00,CLR,,0.00,WeatherDisplay:10.37,2013-08-14 01:04:00,
2013-08-13 21:09:00,56.9,47.2,30.00,West,265,0.0,0.0,70,0.00,CLR,,0.00,WeatherDisplay:10.37,2013-08-14 01:09:00,
2013-08-13 21:14:00,56.8,46.7,30.00,WNW,302,5.8,5.8,69,0.00,CLR,,0.00,WeatherDisplay:10.37,2013-08-14 01:14:00,
2013-08-13 21:19:00,56.8,46.3,30.00,NW,304,0.0,0.0,68,0.00,CLR,,0.00,WeatherDisplay:10.37,2013-08-14 01:19:00,
2013-08-13 21:24:00,56.7,45.5,30.00,North,355,4.6,4.6,66,0.00,CLR,,0.00,WeatherDisplay:10.37,2013-08-14 01:24:00,
2013-08-13 21:29:00,56.7,46.6,30.01,NW,321,0.0,0.0,69,0.00,CLR,,0.00,WeatherDisplay:10.37,2013-08-14 01:29:00,
2013-08-13 21:34:00,56.6,46.2,30.01,North,9,1.1,1.1,68,0.00,CLR,,0.00,WeatherDisplay:10.37,2013-08-14 01:34:00,
2013-08-13 21:39:00,56.5,46.1,30.01,North,5,0.0,0.0,68,0.00,CLR,,0.00,WeatherDisplay:10.37,2013-08-14 01:39:00,
2013-08-13 21:44:00,56.4,46.4,30.01,NNW,337,2.3,2.3,69,0.00,CLR,,0.00,WeatherDisplay:10.37,2013-08-14 01:44:00,
2013-08-13 21:49:00,56.3,46.3,30.01,NNW,338,0.0,0.0,69,0.00,CLR,,0.00,WeatherDisplay:10.37,2013-08-14 01:49:00,
2013-08-13 21:54:00,56.0,46.4,30.01,NNW,338,0.0,0.0,70,0.00,CLR,,0.00,WeatherDisplay:10.37,2013-08-14 01:54:00,
2013-08-13 21:59:00,55.8,46.2,30.02,NNW,336,0.0,0.0,70,0.00,CLR,,0.00,WeatherDisplay:10.37,2013-08-14 01:59:00,
2013-08-13 22:04:00,55.6,47.1,30.02,NW,315,2.3,2.3,73,0.00,CLR,,0.00,WeatherDisplay:10.37,2013-08-14 02:04:00,
2013-08-13 22:09:00,55.2,46.3,30.02,NW,315,0.0,0.0,72,0.00,CLR,,0.00,WeatherDisplay:10.37,2013-08-14 02:09:00,
2013-08-13 22:14:00,54.8,46.3,30.02,NW,315,0.0,0.0,73,0.00,CLR,,0.00,WeatherDisplay:10.37,2013-08-14 02:14:00,
2013-08-13 22:19:00,54.3,46.2,30.02,NW,315,0.0,0.0,74,0.00,CLR,,0.00,WeatherDisplay:10.37,2013-08-14 02:19:00,
2013-08-13 22:24:00,53.7,46.0,30.02,NW,315,0.0,0.0,75,0.00,CLR,,0.00,WeatherDisplay:10.37,2013-08-14 02:24:00,
2013-08-13 22:29:00,53.2,45.8,30.02,NW,315,0.0,0.0,76,0.00,CLR,,0.00,WeatherDisplay:10.37,2013-08-14 02:29:00,
2013-08-13 22:34:00,52.7,46.0,30.03,NW,315,1.1,0.0,78,0.00,CLR,,0.00,WeatherDisplay:10.37,2013-08-14 02:34:00,
2013-08-13 22:39:00,52.2,45.9,30.03,NW,315,0.0,0.0,79,0.00,CLR,,0.00,WeatherDisplay:10.37,2013-08-14 02:39:00,
2013-08-13 22:44:00,51.7,45.7,30.03,NW,315,0.0,0.0,80,0.00,CLR,,0.00,WeatherDisplay:10.37,2013-08-14 02:44:00,
2013-08-13 22:49:00,51.4,45.8,30.03,NW,315,0.0,0.0,81,0.00,CLR,,0.00,WeatherDisplay:10.37,2013-08-14 02:49:00,
2013-08-13 22:54:00,51.2,45.6,30.03,WNW,288,0.0,0.0,81,0.00,CLR,,0.00,WeatherDisplay:10.37,2013-08-14 02:54:00,
2013-08-13 22:59:00,51.0,45.7,30.02,WNW,288,0.0,0.0,82,0.00,CLR,,0.00,WeatherDisplay:10.37,2013-08-14 02:59:00,
2013-08-13 23:04:00,50.9,45.6,30.02,WNW,288,0.0,0.0,82,0.00,CLR,,0.00,WeatherDisplay:10.37,2013-08-14 03:04:00,
2013-08-13 23:09:00,50.9,45.6,30.02,WNW,288,1.1,1.1,82,0.00,CLR,,0.00,WeatherDisplay:10.37,2013-08-14 03:09:00,
2013-08-13 23:14:00,50.8,45.8,30.03,WNW,288,0.0,0.0,83,0.00,CLR,,0.00,WeatherDisplay:10.37,2013-08-14 03:14:00,
2013-08-13 23:19:00,50.6,45.6,30.03,WNW,288,0.0,0.0,83,0.00,CLR,,0.00,WeatherDisplay:10.37,2013-08-14 03:19:00,
2013-08-13 23:24:00,50.4,45.4,30.03,WNW,288,0.0,0.0,83,0.00,CLR,,0.00,WeatherDisplay:10.37,2013-08-14 03:24:00,
2013-08-13 23:29:00,50.1,45.1,30.03,WNW,288,0.0,0.0,83,0.00,CLR,,0.00,WeatherDisplay:10.37,2013-08-14 03:29:00,
2013-08-13 23:34:00,49.9,44.9,30.03,WNW,288,0.0,0.0,83,0.00,CLR,,0.00,WeatherDisplay:10.37,2013-08-14 03:34:00,
2013-08-13 23:39:00,49.6,45.0,30.03,WNW,288,0.0,0.0,84,0.00,CLR,,0.00,WeatherDisplay:10.37,2013-08-14 03:39:00,
2013-08-13 23:44:00,49.4,45.1,30.03,WNW,288,0.0,0.0,85,0.00,CLR,,0.00,WeatherDisplay:10.37,2013-08-14 03:44:00,
2013-08-13 23:49:00,49.2,45.2,30.04,WNW,288,0.0,0.0,86,0.00,CLR,,0.00,WeatherDisplay:10.37,2013-08-14 03:49:00,
2013-08-13 23:55:00,48.9,44.9,30.04,WNW,288,0.0,0.0,86,0.00,CLR,,0.00,WeatherDisplay:10.37,2013-08-14 03:55:00,